Sisseton, SD

4:08 AM CST on November 25, 2017 (GMT -0600)
Sisseton

Weather History for K8D3 - October, 2011

Change the Weather History Date:

Thursday, October 6, 2011

  Actual Average Record
Temperature  
Mean Temperature 67 °F 51 °F  
Max Temperature 82 °F 63 °F 92 °F (1993)
Min Temperature 51 °F 39 °F 13 °F (1935)
Degree Days  
Heating Degree Days 0 15  
Month to date heating degree days 9 81  
Since 1 July heating degree days 225 326  
Cooling Degree Days 2 0  
Month to date cooling degree days 15 0  
Year to date cooling degree days 638 523  
Growing Degree Days 16 (Base 50)    
Moisture  
Dew Point 40 °F    
Average Humidity 43    
Maximum Humidity 63    
Minimum Humidity 23    
Precipitation  
Precipitation 0.00 in 0.09 in 0.81 in (1900)
Month to date precipitation 0.00 0.58  
Year to date precipitation 19.93 19.86  
Snow  
Snow 0.00 in - - ()
Month to date snowfall 0.0  
Since 1 July snowfall 0.0  
Snow Depth 0.00 in    
Sea Level Pressure  
Sea Level Pressure 29.78 in    
Wind  
Wind Speed 16 mph (South)    
Max Wind Speed 33 mph    
Max Gust Speed 46 mph    
T = Trace of Precipitation, MM = Missing Value Source: NWS Daily Summary

Daily Weather History Graph

Daily Weather History Graph

Search for Another Location

Airport or City:

Trip Planner

Search our weather history database for the weather conditions in past years. The results will help you decide how hot, cold, wet, or windy it might be!

Date:

Astronomy

Oct. 06, 2011 Rise Set
Actual Time 7:32 AM CDT 6:59 PM CDT
Civil Twilight 7:02 AM CDT 7:28 PM CDT
Nautical Twilight 6:28 AM CDT 8:03 PM CDT
Astronomical Twilight 5:53 AM CDT 8:37 PM CDT
Moon 4:26 PM CDT (10/6) 2:07 AM CDT (10/6)
Length of Visible Light 12h 26m
Length of Day
11h 26m
Waxing Gibbous, 75% of the Moon is Illuminated
Oct 6
Waxing Gibbous
Oct 11
Full
Oct 19
Last Quarter
Oct 26
New
Nov 2
First Quarter

Hourly Weather History & Observations

Time (CDT) Temp. Dew Point Humidity Pressure Visibility Wind Dir Wind Speed Gust Speed Precip Events Conditions
12:56 AM 57.9 °F 39.0 °F 49% 29.83 in - South 8.1 mph - N/A   Unknown
1:56 AM 55.9 °F 39.0 °F 53% 29.84 in - SSE 6.9 mph - N/A   Unknown
2:56 AM 55.0 °F 39.0 °F 55% 29.84 in - South 5.8 mph - N/A   Unknown
3:56 AM 55.0 °F 39.0 °F 55% 29.83 in - South 8.1 mph - N/A   Unknown
4:56 AM 54.0 °F 39.0 °F 57% 29.83 in - South 6.9 mph - N/A   Unknown
5:56 AM 54.0 °F 39.0 °F 57% 29.84 in - SSE 6.9 mph - N/A   Unknown
6:56 AM 54.0 °F 39.0 °F 57% 29.85 in - South 9.2 mph - N/A   Unknown
7:56 AM 52.0 °F 39.9 °F 63% 29.86 in - South 5.8 mph - N/A   Unknown
8:56 AM 55.0 °F 41.0 °F 59% 29.86 in - South 8.1 mph - N/A   Unknown
9:56 AM 63.0 °F 42.1 °F 46% 29.85 in - South 12.7 mph - N/A   Unknown
10:56 AM 69.1 °F 43.0 °F 39% 29.83 in - South 17.3 mph 23.0 mph N/A   Unknown
11:56 AM 73.9 °F 43.0 °F 33% 29.80 in - SSE 19.6 mph 29.9 mph N/A   Unknown
12:56 PM 80.1 °F 42.1 °F 26% 29.78 in - South 21.9 mph 32.2 mph N/A   Unknown
1:56 PM 79.0 °F 39.9 °F 25% 29.75 in - South 26.5 mph 39.1 mph N/A   Unknown
2:56 PM 81.0 °F 39.0 °F 22% 29.73 in - South 23.0 mph 40.3 mph N/A   Unknown
3:56 PM 80.1 °F 39.9 °F 24% 29.72 in - South 23.0 mph 42.6 mph N/A   Unknown
4:56 PM 78.1 °F 39.9 °F 25% 29.72 in - South 27.6 mph 46.0 mph N/A   Unknown
5:56 PM 77.0 °F 39.9 °F 26% 29.70 in - South 24.2 mph 35.7 mph N/A   Unknown
6:56 PM 73.9 °F 37.9 °F 27% 29.70 in - SSE 18.4 mph 32.2 mph N/A   Unknown
7:56 PM 73.0 °F 39.0 °F 29% 29.70 in - SSE 21.9 mph 34.5 mph N/A   Unknown
8:56 PM 73.0 °F 39.0 °F 29% 29.70 in - SSE 18.4 mph 29.9 mph N/A   Unknown
9:56 PM 71.1 °F 39.0 °F 31% 29.70 in - South 19.6 mph 29.9 mph N/A   Unknown
10:56 PM 70.0 °F 39.9 °F 33% 29.70 in - SSE 18.4 mph 26.5 mph N/A   Unknown
11:56 PM 69.1 °F 39.9 °F 35% 29.68 in - South 15.0 mph 27.6 mph N/A   Unknown